Location: *
(39.6167°S, 171.5333°W)
Time: 21:59:25
(UTC+00:00)

Cosmos 1825 - Pass Details

Date: 13 May 2021
Orbit: 501 x 507 km, 82.5° (Epoch: 15 June)

Event Time Altitude Azimuth Distance (km) Brightness Sun altitude
Exits shadow 16:22:35 62° 152° (SSE) 579 2.4 -23.1°
Maximum altitude 16:23:04 73° 99° (E) 540 2.3 -23.0°
Drops below altitude 10° 16:26:50 10° 13° (NNE) 1,721 5.1 -22.2°
Sets 16:28:57 0° 10° (N) 2,598 6.0 -21.8°
